Regional Weather Roundup
Issued by NWS Upton, NY

Current Version | Previous Version | Text Only | Print | Product List | Glossary On
Versions: 1 2 3 4 5 6 7 8 9 10 11 12 13 14 15 16 17 18 19 20 21 22 23 24 25 26 27 28 29 30 31 32 33 34 35 36 37 38 39 40 41 42 43 44 45 46 47 48 49 50
000 ASUS41 KOKX 291708 RWROKX REGIONAL WEATHER ROUNDUP NATIONAL WEATHER SERVICE NEW YORK NY 100 PM EDT WED JUL 29 2015 NOTE: "FAIR" INDICATES FEW OR NO CLOUDS BELOW 12,000 FEET WITH NO SIGNIFICANT WEATHER AND/OR OBSTRUCTIONS TO VISIBILITY. NYZ071-072-176-178-NJZ106-104-291800- NEW YORK CITY METRO AREA CITY SKY/WX TMP DP RH WIND PRES REMARKS CENTRAL PARK MOSUNNY 93 61 34 VRB5 29.99F HX 93 LAGUARDIA APRT PTSUNNY 92 63 38 NE7 29.96F HX 93 KENNEDY INTL PTSUNNY 91 66 43 S13 29.98S HX 93 NEWARK/LIBERTY PTSUNNY 95 61 32 VRB6 29.96F HX 95 BRNX BOT. GARD N/A 93 64 38 S1 29.97F HX 95 TETERBORO MOSUNNY 93 63 36 NW5 29.95F HX 94 $$ NYZ177-179-078>081-291800- LONG ISLAND NEW YORK CITY SKY/WX TMP DP RH WIND PRES REMARKS FARMINGDALE PTSUNNY 87 70 56 S10 29.97F HX 92 ISLIP CLOUDY 89 69 51 S9 29.95F HX 93 SHIRLEY PTSUNNY 89 69 51 S10 29.97F HX 93 WESTHAMPTON PTSUNNY 90 68 48 S9 29.98F HX 94 MONTAUK POINT N/A 87 73 62 S6 29.97F HX 94 $$ NYZ052-065-067-291800- HUDSON VALLEY CITY SKY/WX TMP DP RH WIND PRES REMARKS WHITE PLAINS PTSUNNY 89 62 40 NW9 29.98F NEWBURGH SUNNY 88 66 48 CALM 30.00F HX 90 MONTGOMERY SUNNY 92 61 35 VRB6 29.98F HX 92 POUGHKEEPSIE MOSUNNY 89 63 41 VRB3 29.96F HX 90 ALBANY PTSUNNY 89 62 40 W3 29.97F $$ NJZ001-105-106-008-010-013-015-019>022-104-291800- NEW JERSEY CITY SKY/WX TMP DP RH WIND PRES REMARKS NEWARK/LIBERTY PTSUNNY 95 61 32 VRB6 29.96F HX 95 TETERBORO MOSUNNY 93 63 36 NW5 29.95F HX 94 CALDWELL MOSUNNY 93 60 33 SW9 29.97F HX 93 MORRISTOWN PTSUNNY 91 66 43 NW7 29.98F HX 94 SOMERVILLE PTSUNNY 93 61 34 CALM 29.96F HX 93 SUSSEX SUNNY 88 63 43 E3 30.00F ANDOVER N/A 90 67 46 VRB5 30.00F HX 93 TRENTON MOSUNNY 92 62 36 VRB6 29.97F HX 92 MILLVILLE MOSUNNY 89 72 56 SW8 30.00F HX 96 ATLANTIC CITY MOSUNNY 89 72 56 VRB6 30.00F HX 96 WRIGHTSTOWN SUNNY 91 68 46 VRB5 29.96F HX 95 TOMS RIVER N/A 91 64 40 CALM 29.99S HX 93 BELMAR MOSUNNY 91 68 46 S9 29.99F HX 95 $$ PAZ047>061-062-071-291800- EASTERN PENNSYLVANIA CITY SKY/WX TMP DP RH WIND PRES REMARKS PHILADELPHIA PTSUNNY 90 68 48 SW10 30.00S HX 94 ALLENTOWN PTSUNNY 88 69 53 N5 29.99F HX 92 SCRANTON MOSUNNY 88 63 43 S5 30.01F $$ CTZ002-004>006-009-010-012-RIZ004-006-007-MAZ004-011-015-291800- SOUTHERN NEW ENGLAND IN CT CITY SKY/WX TMP DP RH WIND PRES REMARKS BRADLEY INTL PTSUNNY 91 65 41 S5 29.95F HX 93 HARTFORD PTSUNNY 91 68 46 S12 29.94F HX 95 DANBURY PTSUNNY 88 64 44 VRB6 29.99F WTRBRY/OXFORD MOSUNNY 86 66 51 VRB5 30.03F BRIDGEPORT PTSUNNY 85 70 60 SW7 29.97F MERIDEN PTSUNNY 92 63 38 SW6 29.96F HX 93 NEW HAVEN PTSUNNY 84 68 58 S7 29.97F CHESTER FAIR 90 68 48 SW7 29.98F HX 93 GROTON PTSUNNY 83 68 60 SW8 29.95F WILLIMANTIC PTSUNNY 89 66 46 SW6 29.96F HX 91 IN RI CITY SKY/WX TMP DP RH WIND PRES REMARKS PROVIDENCE PTSUNNY 88 71 57 S9 29.94F HX 94 BLOCK ISLAND N/A 86 70 58 SW8 29.98F HX 90 WESTERLY PTSUNNY 88 69 53 SW7 29.96F HX 92 IN MA CITY SKY/WX TMP DP RH WIND PRES REMARKS BOSTON PTSUNNY 85 64 49 SE8 29.92F WORCESTER PTSUNNY 85 63 47 SW7 29.99F WESTFIELD PTSUNNY 90 64 42 SE5 29.96F HX 91 PROVINCETOWN MOSUNNY 86 64 48 SW6 29.94S NANTUCKET SUNNY 81 70 69 SW12 29.96S $$ ANZ330-335-338-340-345-350-353-355-291800- COASTAL MARINE OBSERVATIONS STATION/POSITION TIME SKY/WX TEMP WIND PRES VSBY WAVE AIR SEA DIR/SP/G HT/PER (UTC) (F) (DEG/KT/KT) (MB) (MI) (FT/S) NY HARB ENTRANCE 1650 79 78 190/ 8/ 10 1015.0 2/ 7 4S FIRE IS NOT AVBL 20S FIRE ISLAND 1650 77 75 210/ 8/ 8 1015.2 2/ 7 GREAT SOUTH BAY NOT AVBL 23SW MTP 1650 76 74 220/ 6/ 6 1014.7 2/ 8 HUDSON CANYON NOT AVBL KINGS POINT 1600 89 69 20/ 4/ 6 1014.4 EXECUTION ROCKS 1600 83 110/ 2/ 4 N/A CENTRAL LI SOUND NOT AVBL EASTERN LI SOUND 1600 76 69 230/ 4/ 4 N/A ROBBINS REEF 1600 86 120/ 3/ 4 1013.9 $$ >>>>>>>>>>>>>>>>>>>>>>>>>>>> KEY <<<<<<<<<<<<<<<<<<<<<<<<<<< > < > SKY/WX - SKY CONDITION/PRESENT WEATHER < > TMP - TEMPERATURE IN FAHRENHEIT < > DP - DEWPOINT IN FAHRENHEIT < > RH - RELATIVE HUMIDITY IN PERCENT < > WIND - DIRECTION AND SPEED IN MPH < > PRES - MEAN SEA LEVEL PRESSURE IN INCHES OF HG < > WCI - WIND CHILL INDEX < > VSB - VISIBILITY IN MILES < > HX - HEAT INDEX < > TC - TEMPERATURE IN CELSIUS < > VRB - VARIABLE WIND DIRECTION < > < >>>>>>>>>>>>>>>>>>>>>>>>>>>> KEY <<<<<<<<<<<<<<<<<<<<<<<<<<<

USA.gov is the U.S. government's official web portal to all federal, state and local government web resources and services.